EW0784 Weather Reports


Display with metric or nautical units.
time (UTC)temp
F
wind
direction
speed
MPH
gust
MPH
rain 1hr
in
rain 24hr
in
rain mn
in
humidity
%
barometer
mb
20260906164511 76 90 0.0 9.0 0.00 0.00 0.00 74 1019.0
20260906163009 75 146 0.0 8.0 0.00 0.00 0.00 76 1019.3
20260906161507 75 103 0.0 8.0 0.00 0.00 0.00 78 1019.4
20260906160004 74 143 0.0 14.0 0.00 0.00 0.00 79 1019.5
20260906154503 74 226 0.0 9.0 0.00 0.00 0.00 81 1019.3
20260906153059 72 115 0.0 10.0 0.00 0.00 0.00 83 1019.4
20260906151556 72 151 0.0 9.0 0.00 0.00 0.00 85 1019.7
20260906150052 71 141 0.0 13.0 0.00 0.00 0.00 86 1019.4
20260906144606 70 122 0.0 8.0 0.00 0.00 0.00 88 1019.5
20260906143050 70 72 1.0 8.0 0.00 0.00 0.00 90 1019.4
20260906141550 68 122 1.0 6.0 0.00 0.00 0.00 93 1019.5
20260906140045 68 145 3.0 8.0 0.00 0.00 0.00 94 1019.5
20260906134545 67 117 2.0 7.0 0.00 0.00 0.00 94 1019.2
20260906133049 68 103 0.0 8.0 0.00 0.00 0.00 95 1019.2
20260906131541 67 107 2.0 10.0 0.00 0.00 0.00 94 1019.0
20260906130044 67 91 0.0 1.0 0.00 0.00 0.00 95 1019.0
20260906124542 67 96 0.0 0.0 0.00 0.00 0.00 95 1019.0
20260906123039 67 89 0.0 0.0 0.00 0.00 0.00 96 1019.0
20260906121538 66 128 0.0 0.0 0.00 0.00 0.00 96 1018.8
20260906120041 66 113 0.0 0.0 0.00 0.00 0.00 96 1018.6
20260906114545 66 113 0.0 0.0 0.00 0.00 0.00 96 1018.6
20260906113133 66 127 0.0 0.0 0.00 0.00 0.00 96 1018.5
20260906111535 65 122 0.0 0.0 0.00 0.00 0.00 95 1018.4
20260906110028 66 122 0.0 0.0 0.00 0.00 0.00 95 1018.4
20260906104532 67 122 0.0 0.0 0.00 0.00 0.00 94 1018.1
20260906103024 67 122 0.0 0.0 0.00 0.00 0.00 94 1018.2
20260906101522 68 89 0.0 0.0 0.00 0.00 0.00 94 1018.1
20260906100020 68 99 0.0 0.0 0.00 0.00 0.00 94 1017.8
20260906094543 68 82 0.0 0.0 0.00 0.00 0.00 93 1017.4
20260906093038 68 91 0.0 0.0 0.00 0.00 0.00 93 1017.4
20260906091518 68 103 0.0 0.0 0.00 0.00 0.00 93 1017.3
20260906090024 68 122 0.0 0.0 0.00 0.00 0.00 93 1017.4
20260906084520 68 112 0.0 0.0 0.00 0.00 0.00 93 1017.2
20260906083021 68 90 0.0 0.0 0.00 0.00 0.00 93 1017.3
20260906081516 68 103 0.0 0.0 0.00 0.00 0.00 93 1017.3
20260906080016 68 93 0.0 0.0 0.00 0.00 0.00 94 1017.3
20260906074517 68 94 0.0 0.0 0.00 0.00 0.00 93 1017.4
20260906073019 68 93 0.0 0.0 0.00 0.00 0.00 93 1017.5
20260906071510 68 87 0.0 0.0 0.00 0.00 0.00 92 1017.5
20260906070007 69 96 0.0 0.0 0.00 0.00 0.00 91 1017.7
20260906064507 69 95 0.0 0.0 0.00 0.00 0.00 91 1017.8
20260906063006 69 90 0.0 0.0 0.00 0.00 0.00 91 1017.7
20260906061505 69 104 0.0 0.0 0.00 0.00 0.00 91 1017.9
20260906060004 69 109 0.0 0.0 0.00 0.00 0.00 91 1017.9
20260906054504 69 109 0.0 0.0 0.00 0.00 0.00 90 1017.8
20260906053001 70 108 0.0 0.0 0.00 0.00 0.00 89 1017.8
20260906051607 70 109 0.0 0.0 0.00 0.00 0.00 89 1017.8
20260906050105 70 132 0.0 0.0 0.00 0.00 0.00 90 1017.8
20260906044602 69 129 0.0 0.0 0.00 0.00 0.00 90 1017.8
20260906043058 69 127 0.0 0.0 0.00 0.00 0.00 89 1017.9
20260906041556 69 127 0.0 0.0 0.00 0.00 0.00 90 1017.9
20260906034557 69 104 0.0 0.0 0.00 0.00 0.00 89 1017.9
20260906033055 70 103 0.0 0.0 0.00 0.00 0.00 87 1018.1
20260906031555 70 103 0.0 0.0 0.00 0.00 0.00 87 1018.1
20260906030052 71 103 0.0 0.0 0.00 0.00 0.00 86 1018.3
20260906024558 71 103 0.0 0.0 0.00 0.00 0.00 86 1018.2
20260906023052 71 103 0.0 0.0 0.00 0.00 0.00 84 1017.8
20260906021551 72 102 0.0 0.0 0.00 0.00 0.00 82 1017.6
20260906020050 73 101 0.0 0.0 0.00 0.00 0.00 80 1017.0
20260906014627 74 101 0.0 0.0 0.00 0.00 0.00 77 1016.6
20260906013057 74 126 0.0 0.0 0.00 0.00 0.00 77 1016.3
20260906011549 75 219 0.0 0.0 0.00 0.00 0.00 74 1016.1
20260906010052 76 219 0.0 0.0 0.00 0.00 0.00 72 1015.5
20260906004551 77 91 0.0 0.0 0.00 0.00 0.00 70 1015.3
20260906003047 78 77 0.0 0.0 0.00 0.00 0.00 69 1015.3
20260906001546 80 95 0.0 0.0 0.00 0.00 0.00 67 1015.4
20260906000046 81 99 0.0 4.0 0.00 0.00 0.00 65 1015.3
20260905234545 81 94 0.0 1.0 0.00 0.00 0.00 64 1015.2
20260905233047 82 97 1.0 15.0 0.00 0.00 0.00 64 1014.9
20260905231545 82 78 0.0 12.0 0.00 0.00 0.00 64 1014.9
20260905230043 83 76 0.0 9.0 0.00 0.00 0.00 63 1014.8
20260905224543 83 117 0.0 13.0 0.00 0.00 0.00 62 1014.8
20260905223042 83 101 0.0 11.0 0.00 0.00 0.00 61 1015.1
20260905221604 83 88 0.0 7.0 0.00 0.00 0.00 61 1015.3
20260905220041 84 89 0.0 9.0 0.00 0.00 0.00 61 1015.1
20260905214540 83 85 0.0 15.0 0.00 0.00 0.00 64 1015.0
20260905213055 83 78 0.0 10.0 0.00 0.00 0.00 64 1015.1
20260905211543 83 81 0.0 7.0 0.00 0.00 0.00 64 1015.7
20260905210049 83 23 0.0 3.0 0.00 0.00 0.00 63 1016.0
20260905204544 84 84 0.0 5.0 0.00 0.00 0.00 63 1016.1
20260905203041 83 114 0.0 0.0 0.00 0.00 0.00 64 1016.5
20260905201539 84 88 0.0 0.0 0.00 0.00 0.00 62 1016.6
20260905200038 84 80 0.0 0.0 0.00 0.00 0.00 65 1016.9
20260905194533 82 137 0.0 0.0 0.00 0.00 0.00 65 1017.0
20260905193032 83 95 0.0 0.0 0.00 0.00 0.00 66 1017.1
20260905191529 82 259 0.0 0.0 0.00 0.00 0.00 67 1017.2
20260905190028 82 79 0.0 0.0 0.00 0.00 0.00 66 1017.1
20260905184535 81 240 0.0 1.0 0.00 0.00 0.00 72 1017.2
20260905183022 80 93 0.0 0.0 0.00 0.00 0.00 73 1017.4
20260905181518 78 91 0.0 0.0 0.00 0.00 0.00 78 1017.4
20260905180016 76 95 0.0 7.0 0.00 0.00 0.00 83 1017.6
20260905174509 73 91 0.0 5.0 0.00 0.00 0.00 94 1017.6
20260905173006 72 116 0.0 5.0 0.00 0.00 0.00 96 1017.9
20260905171505 71 89 0.0 5.0 0.00 0.00 0.00 96 1017.8
20260905170003 71 101 2.0 6.0 0.00 0.00 0.00 96 1018.0